Location: Cambridge (historical)
(38.6883°N, 119.0140°W)
Time: 16:39:51
(UTC+00:00)

H-2A R/B - Pass Details

Date: 29 October 2020
Orbit: 528 x 652 km, 98.3° (Epoch: 23 November)

Event Time Altitude Azimuth Distance (km) Brightness Sun altitude
Rises 13:34:09 0° 16° (NNE) 2,918 6.1 -9.6°
Reaches altitude 10° 13:36:25 10° 20° (NNE) 1,989 5.3 -9.2°
Maximum altitude 13:40:42 62° 101° (E) 680 3.1 -8.3°
Drops below altitude 10° 13:44:47 10° 183° (S) 1,899 5.2 -7.6°
Sets 13:46:54 0° 186° (S) 2,773 6.0 -7.2°
